Location: ?????????
(41.2286°N, 23.0068°E)
Time: 09:44:17
(UTC+00:00)

Cosmos 1328 - Pass Details

Date: 08 November 2025
Orbit: 463 x 480 km, 82.5° (Epoch: 04 December)

Event Time Altitude Azimuth Distance (km) Brightness Sun altitude
Rises 03:28:30 0° 196° (SSW) 2,534 7.1 -18.9°
Reaches altitude 10° 03:30:37 10° 201° (SSW) 1,662 6.1 -18.5°
Maximum altitude 03:34:11 55° 279° (W) 590 3.6 -17.8°
Drops below altitude 10° 03:37:49 10° 359° (N) 1,682 6.2 -17.1°
Sets 03:40:03 0° 4° (N) 2,607 7.2 -16.7°
